Location: Ripley
(48.3812°N, 115.4473°W)
Time: 21:07:16
(UTC+00:00)

EO-79 - Pass Details

Date: 08 July 2022
Orbit: 588 x 603 km, 98.0° (Epoch: 11 August)

Event Time Altitude Azimuth Distance (km) Brightness Sun altitude
Rises 08:33:45 0° 25° (NNE) 2,863 ? -18.4°
Reaches altitude 10° 08:36:20 10° 41° (NE) 1,956 ? -18.3°
Maximum altitude 08:39:42 22° 93° (E) 1,317 ? -18.2°
Enters shadow 08:41:48 16° 132° (SE) 1,596 ? -18.1°
